Temp
-10 -10 -10 -9 -9 -9 -9 -9 -8 -8 -8 -7 -7 -7 -7 -6 -6 -6 -6 -6 -6 -6 -6 -6 -5 -6 -6 -6 -6 -6 -6 -6 -6 -6 -6 -6 -6 -6 -6 -6 -6 -6 -7 -7 -7 -7 -7 -7 -7
-10 -10 -10 -9 -9 -9 -9 -9 -8 -8 -8 -7 -7 -7 -7 -7 -6 -6 -6 -6 -6 -6 -6 -5 -5 -6 -6 -6 -6 -6 -6 -6 -6 -6 -6 -6 -6 -6 -6 -6 -6 -6 -7 -7 -7 -7 -7 -7 -7
-10 -10 -10 -9 -10 -9 -9 -9 -9 -8 -8 -7 -7 -7 -7 -7 -6 -6 -6 -6 -6 -6 -6 -6 -5 -6 -6 -6 -6 -6 -6 -6 -6 -6 -6 -6 -6 -6 -6 -6 -6 -6 -6 -7 -7 -7 -7 -7 -7
-10 -10 -10 -10 -10 -9 -9 -9 -9 -8 -8 -8 -7 -7 -7 -7 -7 -6 -6 -6 -6 -6 -6 -6 -6 -6 -6 -6 -6 -6 -6 -6 -6 -6 -6 -6 -6 -6 -6 -6 -6 -6 -7 -7 -7 -7 -7 -7 -7
-10 -10 -10 -10 -10 -10 -9 -9 -9 -8 -8 -8 -7 -7 -7 -7 -7 -6 -6 -6 -6 -6 -6 -6 -6 -6 -6 -6 -6 -6 -6 -6 -6 -6 -6 -6 -6 -6 -6 -6 -7 -7 -7 -7 -7 -7 -7 -7 -7
-11 -10 -10 -10 -10 -9 -9 -9 -9 -9 -8 -8 -8 -7 -7 -7 -7 -7 -7 -6 -6 -6 -6 -6 -6 -6 -6 -6 -6 -6 -6 -6 -6 -6 -6 -7 -7 -7 -7 -7 -7 -7 -7 -7 -8 -8 -8 -8 -8
-10 -10 -10 -10 -11 -10 -9 -10 -10 -9 -9 -8 -8 -8 -8 -7 -7 -7 -7 -6 -6 -6 -6 -6 -6 -6 -6 -6 -6 -6 -6 -6 -6 -6 -7 -7 -7 -7 -7 -7 -7 -8 -8 -8 -8 -8 -9 -9 -9
-10 -10 -10 -9 -10 -9 -9 -9 -9 -9 -9 -9 -9 -8 -8 -8 -7 -7 -7 -7 -6 -6 -6 -6 -6 -6 -6 -6 -6 -6 -6 -6 -6 -6 -7 -7 -7 -7 -8 -8 -8 -8 -8 -8 -9 -9 -9 -9 -9
-10 -10 -10 -10 -10 -9 -9 -9 -9 -9 -9 -9 -9 -9 -8 -8 -8 -7 -7 -7 -7 -7 -7 -6 -6 -6 -6 -6 -7 -7 -7 -7 -7 -7 -7 -7 -7 -7 -8 -8 -8 -8 -8 -8 -9 -9 -9 -9 -8
-10 -10 -10 -10 -9 -10 -9 -9 -9 -9 -9 -9 -9 -9 -8 -8 -8 -8 -8 -7 -7 -7 -7 -7 -6 -6 -6 -7 -7 -7 -7 -7 -7 -7 -7 -7 -7 -8 -8 -8 -8 -8 -8 -8 -9 -9 -9 -9 -8
-10 -10 -10 -10 -10 -10 -10 -10 -9 -9 -9 -9 -9 -8 -8 -8 -8 -8 -8 -8 -8 -8 -7 -7 -7 -7 -7 -7 -7 -7 -7 -7 -7 -7 -7 -7 -7 -8 -8 -8 -8 -8 -8 -8 -8 -9 -9 -8 -8
-10 -10 -10 -10 -10 -10 -10 -10 -10 -9 -9 -9 -8 -8 -8 -8 -9 -9 -9 -9 -9 -8 -8 -8 -8 -8 -8 -7 -7 -7 -7 -7 -7 -7 -7 -7 -7 -7 -8 -8 -9 -8 -9 -9 -9 -9 -9 -9 -9
-10 -10 -10 -10 -10 -10 -10 -10 -10 -9 -9 -9 -9 -9 -8 -9 -9 -9 -9 -9 -9 -9 -9 -9 -9 -8 -8 -8 -8 -8 -8 -8 -7 -7 -7 -7 -8 -8 -8 -8 -9 -9 -9 -9 -9 -9 -9 -9 -9
-10 -10 -10 -10 -10 -10 -10 -10 -10 -9 -9 -9 -9 -9 -9 -9 -9 -9 -9 -9 -9 -9 -9 -9 -9 -9 -9 -8 -8 -8 -9 -8 -8 -8 -8 -8 -8 -8 -8 -8 -9 -9 -9 -9 -9 -9 -10 -9 -9
-10 -10 -10 -10 -10 -10 -10 -10 -10 -10 -10 -10 -10 -10 -9 -9 -9 -9 -9 -9 -9 -9 -9 -9 -9 -9 -9 -9 -9 -9 -9 -9 -9 -8 -8 -8 -8 -8 -8 -8 -9 -9 -9 -9 -10 -10 -9 -9 -9
-10 -10 -10 -10 -10 -10 -10 -10 -10 -10 -10 -10 -10 -10 -9 -9 -9 -9 -9 -9 -8 -8 -8 -9 -9 -9 -9 -9 -9 -8 -8 -8 -9 -9 -9 -8 -8 -8 -8 -8 -9 -9 -9 -10 -10 -10 -10 -10 -10
-10 -10 -10 -10 -10 -10 -10 -10 -10 -10 -11 -10 -10 -10 -10 -10 -9 -9 -9 -9 -9 -9 -9 -9 -9 -9 -9 -8 -8 -8 -9 -8 -8 -8 -9 -8 -8 -8 -8 -8 -8 -9 -9 -9 -10 -10 -11 -11 -11
-10 -10 -10 -10 -10 -11 -11 -10 -10 -11 -11 -10 -10 -10 -10 -10 -9 -9 -9 -9 -9 -9 -9 -9 -9 -9 -8 -8 -8 -8 -8 -8 -8 -8 -8 -8 -8 -8 -8 -8 -8 -9 -9 -9 -10 -11 -11 -11 -11
-11 -10 -10 -10 -10 -11 -11 -11 -10 -10 -11 -10 -10 -10 -10 -10 -10 -9 -9 -9 -9 -9 -9 -9 -9 -9 -9 -9 -8 -9 -9 -8 -8 -8 -8 -8 -8 -9 -8 -8 -8 -9 -9 -9 -10 -10 -11 -11 -11
-11 -11 -10 -11 -11 -11 -11 -11 -10 -10 -10 -11 -10 -10 -10 -10 -10 -9 -9 -9 -9 -9 -9 -8 -8 -8 -8 -8 -8 -8 -8 -8 -8 -8 -8 -7 -8 -8 -8 -8 -8 -9 -9 -9 -9 -10 -10 -11 -11
-11 -11 -11 -11 -11 -11 -11 -11 -11 -11 -11 -11 -10 -10 -10 -10 -10 -10 -10 -9 -10 -9 -9 -9 -9 -9 -8 -8 -8 -8 -8 -8 -8 -8 -8 -8 -8 -9 -8 -8 -9 -9 -9 -10 -9 -10 -11 -11 -11
-11 -11 -11 -11 -11 -11 -11 -11 -11 -11 -10 -10 -10 -11 -11 -11 -10 -10 -10 -10 -10 -9 -9 -9 -9 -9 -9 -8 -8 -8 -8 -8 -9 -9 -9 -9 -9 -9 -9 -9 -9 -10 -10 -10 -10 -10 -11 -11 -12
-12 -12 -12 -11 -11 -11 -11 -11 -11 -11 -11 -11 -11 -11 -11 -11 -11 -11 -11 -10 -10 -10 -10 -10 -9 -9 -9 -9 -9 -9 -8 -9 -9 -9 -10 -9 -10 -10 -11 -11 -11 -11 -11 -11 -11 -11 -12 -12 -13
-12 -12 -12 -12 -12 -12 -11 -11 -11 -11 -11 -11 -12 -12 -11 -12 -12 -11 -11 -11 -11 -10 -10 -10 -10 -10 -10 -10 -10 -10 -10 -10 -10 -11 -11 -11 -11 -11 -11 -11 -11 -12 -12 -12 -12 -13 -13 -13 -13
-13 -12 -12 -12 -12 -12 -12 -12 -12 -12 -12 -12 -12 -13 -13 -13 -12 -12 -11 -11 -11 -11 -11 -11 -11 -11 -11 -11 -11 -11 -11 -11 -11 -11 -11 -11 -11 -12 -12 -12 -13 -13 -13 -13 -13 -13 -13 -13 -14
-13 -13 -13 -13 -13 -14 -14 -13 -13 -13 -13 -14 -14 -14 -13 -13 -12 -12 -12 -12 -12 -12 -12 -12 -12 -12 -11 -12 -12 -12 -12 -12 -12 -12 -12 -12 -12 -12 -13 -13 -13 -13 -13 -14 -14 -14 -14 -14 -14
-13 -14 -14 -14 -15 -15 -15 -14 -14 -15 -14 -14 -14 -14 -14 -13 -12 -12 -12 -13 -13 -13 -13 -13 -13 -13 -13 -13 -13 -13 -12 -12 -13 -13 -13 -13 -13 -14 -14 -14 -14 -14 -14 -14 -14 -14 -14 -14 -15
-14 -15 -15 -16 -16 -17 -16 -16 -15 -15 -15 -15 -15 -14 -13 -13 -13 -13 -13 -13 -13 -13 -13 -13 -14 -14 -14 -14 -14 -14 -14 -14 -14 -14 -14 -14 -14 -14 -15 -15 -15 -15 -15 -15 -15 -15 -15 -15 -15
-15 -15 -15 -15 -16 -16 -16 -16 -16 -16 -16 -15 -15 -14 -14 -14 -14 -14 -14 -14 -13 -13 -13 -13 -13 -13 -13 -13 -13 -13 -13 -14 -14 -14 -14 -14 -15 -15 -15 -15 -15 -16 -16 -16 -16 -16 -16 -16 -16
-15 -15 -16 -16 -16 -15 -15 -15 -15 -15 -15 -15 -14 -14 -14 -15 -15 -14 -14 -14 -14 -14 -14 -14 -14 -14 -13 -13 -13 -13 -14 -14 -14 -15 -16 -16 -15 -16 -16 -16 -17 -17 -18 -18 -18 -18 -18 -18 -18
Height
5812 5817 5822 5827 5834 5836 5839 5843 5844 5847 5849 5851 5854 5856 5857 5858 5859 5862 5861 5862 5863 5863 5863 5863 5863 5863 5863 5862 5862 5863 5862 5861 5861 5861 5860 5859 5858 5857 5856 5855 5855 5854 5853 5851 5849 5847 5846 5844 5842
5811 5815 5821 5827 5832 5835 5840 5842 5844 5846 5848 5850 5853 5855 5856 5858 5859 5860 5861 5862 5863 5864 5864 5865 5864 5864 5864 5864 5864 5864 5864 5863 5862 5862 5862 5860 5860 5858 5858 5856 5854 5853 5852 5850 5848 5847 5845 5843 5842
5809 5814 5820 5825 5831 5834 5838 5842 5843 5845 5847 5850 5852 5854 5855 5857 5858 5859 5861 5862 5863 5864 5865 5866 5865 5865 5865 5865 5866 5866 5866 5866 5865 5864 5863 5862 5861 5860 5858 5857 5855 5853 5852 5850 5849 5847 5845 5844 5841
5807 5813 5818 5824 5829 5833 5837 5841 5843 5845 5847 5849 5851 5853 5855 5856 5857 5859 5860 5861 5862 5864 5865 5866 5866 5866 5866 5866 5867 5867 5867 5867 5866 5865 5864 5863 5862 5860 5859 5858 5856 5854 5852 5850 5848 5847 5845 5843 5841
5806 5812 5816 5820 5826 5832 5835 5840 5843 5844 5846 5848 5850 5852 5854 5855 5856 5858 5859 5860 5861 5863 5864 5865 5866 5866 5866 5866 5867 5867 5867 5866 5865 5864 5863 5862 5861 5860 5859 5857 5856 5854 5851 5850 5848 5846 5844 5842 5839
5805 5809 5815 5820 5825 5831 5835 5838 5841 5844 5846 5847 5849 5850 5852 5854 5855 5856 5858 5859 5860 5862 5863 5864 5864 5865 5865 5865 5865 5865 5865 5864 5864 5863 5862 5861 5859 5858 5857 5856 5854 5853 5851 5848 5846 5845 5842 5840 5837
5803 5807 5815 5819 5824 5828 5833 5836 5839 5842 5844 5845 5847 5848 5851 5853 5854 5855 5856 5858 5859 5860 5861 5862 5862 5863 5863 5863 5863 5863 5863 5863 5862 5861 5860 5858 5857 5856 5855 5853 5851 5850 5848 5846 5844 5841 5838 5835 5833
5801 5807 5812 5819 5823 5827 5831 5834 5838 5840 5842 5843 5845 5847 5850 5851 5852 5854 5855 5856 5858 5858 5859 5860 5860 5861 5861 5861 5861 5861 5861 5860 5860 5858 5857 5855 5853 5852 5851 5849 5848 5846 5844 5842 5840 5836 5833 5830 5827
5799 5807 5812 5817 5821 5826 5829 5832 5835 5838 5839 5841 5842 5845 5848 5850 5851 5852 5853 5854 5855 5856 5856 5857 5858 5858 5858 5858 5858 5858 5857 5857 5855 5854 5853 5851 5850 5848 5846 5844 5843 5841 5839 5837 5835 5832 5829 5826 5823
5795 5804 5808 5815 5819 5822 5825 5829 5832 5834 5836 5838 5839 5842 5846 5847 5848 5849 5850 5852 5853 5853 5854 5854 5854 5854 5854 5854 5854 5853 5852 5851 5850 5849 5848 5846 5845 5844 5842 5840 5838 5837 5835 5833 5831 5828 5825 5822 5820
5792 5801 5806 5810 5815 5818 5822 5825 5828 5830 5832 5834 5837 5840 5842 5844 5845 5846 5847 5849 5849 5850 5850 5850 5851 5851 5850 5850 5850 5849 5848 5847 5846 5845 5844 5843 5841 5840 5838 5835 5833 5831 5830 5827 5825 5823 5820 5817 5814
5790 5797 5804 5808 5811 5815 5818 5822 5824 5826 5830 5830 5833 5837 5838 5840 5841 5843 5843 5845 5845 5846 5847 5847 5847 5847 5846 5846 5845 5844 5843 5842 5841 5841 5840 5838 5836 5834 5833 5832 5828 5826 5824 5822 5820 5818 5815 5812 5809
5787 5794 5800 5805 5808 5811 5814 5818 5821 5823 5825 5827 5829 5832 5835 5837 5838 5839 5839 5840 5841 5842 5842 5842 5842 5842 5842 5841 5840 5839 5838 5837 5835 5834 5834 5832 5831 5829 5828 5828 5824 5820 5818 5816 5814 5812 5809 5806 5804
5784 5789 5795 5801 5805 5808 5811 5814 5816 5821 5822 5824 5826 5828 5831 5832 5834 5834 5834 5835 5836 5836 5836 5836 5837 5837 5836 5835 5835 5834 5833 5832 5830 5829 5828 5828 5828 5825 5823 5822 5820 5817 5814 5811 5809 5806 5803 5800 5798
5780 5785 5791 5796 5800 5805 5809 5811 5814 5816 5818 5821 5823 5825 5826 5827 5829 5829 5829 5829 5830 5831 5831 5831 5831 5831 5831 5830 5830 5829 5828 5827 5826 5825 5823 5821 5820 5819 5816 5816 5814 5812 5809 5806 5803 5798 5795 5791 5788
5775 5782 5787 5792 5798 5802 5806 5808 5812 5812 5814 5816 5819 5821 5822 5822 5823 5824 5824 5825 5824 5825 5825 5826 5827 5826 5826 5827 5826 5825 5823 5821 5820 5819 5819 5814 5813 5812 5810 5808 5807 5805 5801 5798 5795 5793 5789 5784 5781
5771 5777 5783 5788 5793 5798 5802 5804 5807 5809 5810 5811 5813 5815 5816 5816 5816 5816 5820 5821 5821 5821 5821 5822 5822 5822 5822 5822 5821 5820 5818 5816 5815 5813 5812 5808 5807 5805 5804 5802 5801 5799 5796 5791 5788 5785 5782 5778 5773
5768 5773 5778 5784 5789 5792 5798 5801 5802 5803 5805 5807 5809 5809 5811 5811 5810 5814 5815 5817 5818 5818 5818 5818 5817 5817 5817 5816 5816 5814 5812 5811 5808 5806 5806 5803 5801 5799 5796 5795 5793 5791 5788 5785 5782 5778 5774 5770 5766
5768 5771 5775 5782 5785 5788 5792 5795 5795 5798 5801 5801 5803 5805 5807 5807 5808 5810 5811 5813 5813 5813 5813 5812 5811 5810 5810 5809 5808 5806 5804 5803 5800 5798 5797 5795 5794 5791 5789 5788 5786 5783 5780 5777 5773 5768 5763 5760 5755
5764 5767 5771 5776 5780 5783 5787 5786 5789 5793 5794 5796 5798 5800 5802 5803 5803 5804 5805 5807 5806 5806 5805 5804 5804 5803 5801 5800 5799 5798 5796 5795 5792 5791 5789 5786 5785 5782 5780 5777 5775 5773 5770 5766 5763 5758 5754 5750 5745
5759 5762 5767 5771 5773 5775 5776 5779 5783 5786 5789 5791 5793 5794 5795 5796 5797 5798 5799 5800 5800 5799 5798 5797 5796 5795 5794 5793 5791 5790 5788 5787 5785 5783 5781 5777 5775 5772 5769 5766 5764 5762 5759 5756 5752 5749 5744 5740 5735
5752 5758 5762 5765 5768 5770 5770 5773 5776 5779 5782 5785 5787 5788 5789 5790 5791 5791 5792 5792 5792 5793 5792 5790 5789 5788 5787 5785 5783 5782 5780 5779 5777 5774 5772 5769 5766 5764 5760 5757 5754 5752 5749 5745 5740 5738 5734 5730 5725
5747 5752 5756 5759 5762 5763 5764 5767 5770 5773 5776 5778 5780 5781 5782 5783 5784 5785 5787 5787 5786 5787 5785 5783 5781 5780 5778 5776 5774 5773 5771 5768 5766 5764 5762 5759 5756 5754 5751 5747 5742 5739 5736 5733 5729 5725 5723 5719 5715
5742 5746 5749 5752 5754 5756 5757 5761 5763 5766 5769 5770 5773 5775 5776 5777 5778 5779 5779 5778 5777 5776 5775 5773 5772 5771 5769 5767 5765 5763 5760 5758 5756 5753 5751 5748 5746 5742 5738 5734 5730 5727 5723 5720 5716 5713 5711 5707 5704
5738 5741 5744 5748 5750 5752 5752 5755 5758 5760 5762 5765 5767 5768 5770 5772 5772 5771 5770 5769 5767 5766 5765 5763 5762 5760 5759 5757 5754 5752 5749 5746 5744 5741 5738 5736 5733 5729 5723 5719 5715 5713 5708 5705 5702 5699 5696 5692 5689
5732 5736 5739 5741 5744 5745 5745 5748 5753 5755 5756 5759 5762 5763 5764 5764 5762 5761 5760 5760 5758 5756 5754 5753 5751 5749 5747 5744 5741 5739 5737 5735 5732 5727 5724 5720 5716 5712 5707 5705 5702 5698 5694 5691 5688 5686 5682 5679 5676
5727 5730 5733 5735 5737 5738 5741 5744 5745 5750 5753 5754 5754 5755 5756 5756 5755 5754 5752 5750 5749 5748 5746 5744 5740 5737 5735 5732 5730 5727 5723 5719 5716 5712 5708 5703 5699 5695 5692 5689 5686 5683 5680 5677 5674 5671 5667 5664 5661
5722 5724 5728 5730 5733 5735 5737 5739 5741 5744 5746 5747 5747 5747 5747 5745 5744 5744 5743 5741 5738 5735 5732 5730 5728 5726 5723 5719 5716 5712 5708 5703 5699 5694 5690 5685 5681 5678 5676 5673 5671 5667 5663 5659 5655 5653 5649 5647 5644
5721 5722 5725 5726 5728 5728 5730 5732 5734 5735 5737 5738 5738 5738 5738 5738 5737 5734 5731 5728 5725 5722 5719 5716 5713 5709 5705 5702 5698 5694 5688 5683 5680 5676 5671 5666 5663 5659 5657 5654 5650 5648 5644 5640 5637 5635 5632 5629 5626
5715 5716 5719 5720 5724 5724 5724 5727 5728 5728 5730 5732 5732 5732 5730 5728 5726 5723 5720 5717 5714 5710 5706 5703 5700 5695 5691 5687 5682 5675 5671 5666 5662 5657 5652 5648 5645 5640 5637 5633 5630 5627 5625 5622 5621 5618 5615 5612 5610
Wind_Speed
32 27 25 23 20 16 14 14 14 13 17 18 17 16 14 13 12 9 8 6 6 7 8 8 9 11 12 12 12 10 9 10 10 10 9 8 7 7 7 8 9 9 8 8 9 10 12 13 14
35 30 27 24 21 18 15 13 14 14 15 18 18 17 15 13 11 10 9 7 5 5 5 6 8 9 11 11 12 10 10 11 11 11 9 9 9 9 9 10 10 11 12 12 13 13 14 14 14
34 32 30 28 22 19 17 15 14 14 14 15 17 18 16 15 12 11 9 6 5 4 3 2 5 7 8 9 9 10 11 11 11 12 12 10 9 9 10 10 11 10 10 11 12 13 14 16 16
37 33 31 26 26 21 18 17 15 14 13 14 15 17 17 15 14 12 10 8 7 5 3 2 2 3 4 5 5 8 9 9 10 10 10 9 9 9 9 10 10 10 10 10 13 15 16 18 19
40 36 34 30 25 22 22 17 15 13 14 14 13 14 17 17 16 15 13 12 9 8 7 7 6 5 5 5 7 8 9 11 11 10 10 11 10 10 11 12 11 12 13 15 17 19 21 22 24
42 40 37 31 27 24 21 26 15 16 15 14 15 14 14 17 18 17 16 15 14 13 12 11 12 11 10 10 11 11 13 14 14 14 14 13 13 14 14 15 16 16 18 20 22 24 26 27 28
46 43 38 32 29 27 22 20 18 17 18 15 16 16 16 14 15 17 18 17 18 17 17 16 16 16 16 15 14 14 16 16 17 17 18 18 18 17 17 19 19 20 23 24 25 27 28 28 28
48 43 39 34 30 29 25 23 22 21 20 20 18 17 17 17 16 15 15 18 19 20 20 21 20 19 19 18 18 18 18 18 18 19 20 20 21 21 21 22 23 24 26 27 28 28 29 30 30
50 44 38 35 32 28 27 24 23 24 24 23 22 20 17 17 18 19 18 18 17 18 21 23 23 23 23 22 21 22 22 22 22 23 23 24 24 24 24 24 25 26 27 29 31 31 32 31 32
50 45 40 37 32 29 29 29 27 26 28 27 25 23 21 20 19 18 18 20 20 20 19 19 22 23 24 23 23 23 24 25 26 26 27 26 28 27 27 27 27 28 29 30 31 33 33 32 32
51 46 41 38 32 29 29 29 28 29 31 31 28 24 23 22 22 21 21 22 21 21 22 21 20 20 19 20 19 20 20 22 24 25 26 26 28 29 29 29 29 29 30 29 30 31 32 30 31
51 43 39 36 32 33 32 30 30 30 30 32 29 27 25 24 23 21 22 23 24 23 22 22 21 21 21 20 21 22 22 23 24 25 26 26 27 30 31 32 29 29 29 29 30 30 30 31 32
51 44 40 37 36 32 30 29 28 27 29 29 29 27 25 22 21 21 21 23 23 25 25 23 22 22 22 22 23 25 25 26 26 27 27 28 29 30 31 34 30 29 29 29 29 31 32 34 37
47 41 40 38 37 33 30 27 28 28 28 28 28 26 24 22 23 24 26 26 27 27 27 28 26 26 26 28 29 30 30 30 28 28 29 30 31 30 30 33 34 31 31 31 32 35 33 35 39
46 35 40 40 37 37 30 28 26 27 29 29 27 27 26 25 25 27 28 30 31 29 28 27 30 32 32 31 30 30 30 30 31 32 32 32 32 32 34 37 38 37 37 37 37 37 36 38 40
42 35 36 41 38 35 31 31 26 24 25 26 27 28 27 26 25 27 27 28 29 30 31 31 30 29 30 30 29 31 31 32 33 33 36 33 34 36 36 37 39 39 39 39 39 40 42 42 42
46 41 38 39 41 36 35 34 29 24 24 24 25 26 27 27 28 29 25 25 25 25 28 31 30 30 30 27 29 30 30 32 34 35 36 36 37 39 40 40 41 44 44 43 43 43 44 45 44
43 42 44 37 39 35 36 34 31 27 26 24 25 26 27 28 30 27 28 28 27 26 27 28 31 31 31 31 33 34 35 36 37 38 40 42 43 44 43 46 48 49 51 50 48 46 46 47 48
37 39 37 39 38 38 35 36 33 31 29 28 28 28 28 31 32 30 30 31 30 30 30 31 33 35 36 37 39 40 41 42 43 44 47 49 48 47 49 52 54 56 56 56 53 53 50 50 50
40 39 41 41 42 43 36 35 35 36 35 34 33 32 32 31 33 32 32 33 32 32 34 37 38 39 38 40 43 44 44 46 47 50 51 52 54 53 53 55 57 57 58 57 56 54 53 54 53
43 39 36 35 35 38 38 39 38 37 38 37 39 38 36 36 39 40 38 35 35 36 36 36 38 38 39 42 43 46 47 48 49 52 52 55 55 55 56 57 56 57 58 58 58 56 57 56 55
40 38 34 34 35 34 36 38 41 41 40 41 40 44 42 43 43 40 39 39 39 42 44 41 43 45 47 46 47 49 49 52 53 54 56 56 56 57 58 59 60 60 60 61 60 59 60 57 56
37 38 36 37 35 35 36 36 39 39 39 40 41 40 43 44 42 46 46 41 43 48 45 46 48 51 52 52 52 54 55 56 57 57 56 57 57 57 56 56 57 59 58 59 59 59 60 59 59
37 37 39 38 36 35 37 38 37 37 36 37 35 33 33 37 39 40 42 43 45 48 48 49 50 51 52 52 52 52 54 54 56 57 57 57 58 59 58 59 59 61 61 61 61 60 60 61 60
34 37 36 36 37 36 37 38 35 35 34 33 34 34 36 39 40 42 45 46 47 48 49 49 50 51 52 53 55 56 57 58 59 60 62 63 64 64 63 63 62 64 65 65 65 64 62 60 60
36 37 37 36 33 28 31 34 32 33 34 33 34 33 36 39 42 45 47 49 50 50 50 52 54 55 57 59 60 61 63 65 66 67 68 69 70 70 68 68 68 68 68 67 66 66 65 64 62
34 32 30 28 24 24 28 31 31 28 28 31 34 35 38 43 47 49 50 50 51 52 54 57 58 59 62 63 64 66 68 70 71 72 72 72 73 72 71 70 70 70 70 70 70 70 68 66 62
31 27 23 22 22 24 26 27 28 26 28 31 34 38 43 48 50 50 51 54 56 59 60 62 63 64 65 67 70 72 73 74 76 77 79 79 78 76 74 73 73 72 70 70 69 68 66 66 62
26 27 27 28 28 29 29 33 34 38 40 42 44 47 52 54 56 58 60 63 65 67 69 71 73 75 77 79 81 82 82 82 82 82 82 82 82 81 82 80 78 75 72 71 70 67 65 63 60
23 24 25 27 30 36 39 40 40 42 47 48 50 51 53 53 53 54 56 58 60 61 64 67 69 72 74 77 78 80 80 80 79 78 77 76 78 78 79 79 75 74 73 70 68 65 62 59 56
Wind_Direction
181 181 180 181 178 173 168 164 163 165 178 179 176 176 173 167 167 158 146 134 113 99 86 78 75 67 66 66 64 57 54 53 52 46 42 44 42 43 36 32 21 16 9 7 6 7 358 355 350
187 190 188 181 178 179 173 175 172 171 176 187 186 187 187 180 180 169 160 155 132 102 76 80 79 72 75 71 67 59 54 53 49 44 34 40 31 29 20 24 19 14 11 12 10 7 2 360 355
192 192 197 188 182 184 177 183 178 181 176 189 200 197 197 192 190 184 180 178 175 147 111 120 93 85 82 73 58 47 38 37 33 32 24 21 22 18 19 12 5 4 1 359 356 352 353 349 346
193 196 203 196 190 190 183 187 186 187 190 189 202 211 210 207 203 202 203 206 207 212 214 211 176 123 65 48 34 7 357 356 351 353 356 360 351 351 346 343 341 337 334 332 335 331 331 331 328
198 198 205 197 198 190 191 191 194 197 202 203 203 212 223 220 217 217 219 222 227 235 241 250 248 255 285 302 312 317 320 322 320 320 324 324 327 318 318 319 319 320 319 313 316 321 319 320 318
203 201 204 202 202 203 198 204 197 205 210 212 216 217 224 230 229 227 229 232 235 241 246 251 258 266 275 284 289 295 301 301 300 302 305 306 308 306 307 309 310 307 308 310 311 315 315 313 313
205 206 205 206 206 211 207 203 202 214 215 216 224 228 229 235 240 240 241 243 246 248 251 253 257 263 271 278 284 288 290 292 293 294 294 297 299 298 296 297 298 300 300 304 307 310 313 313 314
209 210 208 211 212 214 216 215 208 212 224 221 225 232 236 240 247 252 253 252 254 257 259 262 264 266 271 276 281 285 288 291 293 290 289 290 290 290 290 290 293 294 296 298 300 303 306 309 309
213 214 211 212 216 218 221 225 223 219 224 228 227 231 237 244 249 253 260 264 267 269 268 269 271 273 275 278 281 283 285 285 285 285 285 285 284 284 284 285 286 288 291 295 297 299 301 304 307
215 214 212 213 218 223 227 231 233 227 227 232 232 232 236 242 250 255 260 266 268 271 275 276 274 274 276 277 278 279 279 281 281 280 280 281 283 283 283 284 285 287 290 294 296 299 301 306 310
216 214 213 214 213 223 232 231 236 238 233 236 240 238 240 248 251 256 261 265 268 270 272 274 276 277 278 278 279 280 282 282 283 283 283 283 284 284 284 283 284 286 289 292 293 296 301 305 306
213 217 216 218 221 226 234 239 237 240 242 236 240 242 246 252 255 256 257 261 264 265 264 264 268 271 274 277 278 278 278 279 281 283 283 284 285 286 285 284 285 287 289 292 297 301 304 303 304
210 214 217 216 222 225 231 234 233 242 243 243 242 241 243 251 253 262 259 256 260 263 264 264 262 263 265 268 272 275 274 275 277 280 281 283 284 287 290 287 286 287 290 296 299 299 300 303 305
207 208 204 212 217 224 230 232 237 243 243 244 245 245 247 253 256 260 262 265 264 259 261 261 262 263 267 271 271 272 275 274 274 274 280 284 290 292 290 289 291 293 293 295 298 297 299 303 305
212 207 212 229 226 227 229 234 240 242 242 246 248 251 251 249 255 262 264 265 264 264 259 262 262 261 268 272 272 273 274 273 275 276 279 282 284 288 289 287 288 291 292 294 296 293 293 297 299
216 216 217 222 226 221 226 233 238 239 243 244 246 247 245 246 252 256 260 267 268 261 260 262 265 262 267 273 276 278 281 280 275 275 282 281 281 283 287 286 287 286 288 290 291 290 290 292 296
216 222 222 224 224 220 225 234 241 233 236 242 246 244 242 240 243 246 258 268 274 268 262 261 263 263 268 272 277 282 286 285 280 278 281 281 283 286 287 288 288 289 289 288 287 287 287 290 291
210 220 226 228 220 218 227 237 235 228 233 238 241 239 239 242 245 252 260 265 270 274 276 271 265 265 270 274 279 280 283 282 281 280 281 282 283 283 283 284 285 286 288 288 289 288 287 289 291
217 221 223 220 225 223 230 237 230 229 230 233 237 239 242 249 254 259 266 271 273 271 273 273 267 268 274 277 277 278 280 282 282 281 283 285 284 283 285 286 288 289 289 291 291 289 289 290 290
214 223 224 219 221 226 231 235 235 236 234 234 235 240 244 251 254 258 261 269 270 271 269 269 269 271 273 273 275 277 279 282 284 284 284 286 287 288 286 287 288 289 290 290 290 289 289 289 289
214 214 222 228 226 230 234 240 239 240 240 244 244 241 244 248 252 259 259 262 266 268 267 271 272 273 277 277 279 280 281 282 283 284 286 286 287 288 287 288 287 287 287 287 287 288 287 286 287
210 218 229 228 229 232 234 238 241 246 247 246 250 246 245 247 249 256 258 259 265 272 268 269 274 279 281 280 280 281 283 285 285 286 287 287 288 287 287 288 288 288 288 287 287 287 287 287 286
215 220 223 224 226 230 234 238 240 241 240 245 250 253 250 256 259 258 264 264 267 275 274 272 273 276 280 282 283 283 282 281 283 284 284 285 285 286 287 288 288 288 288 288 289 288 288 288 287
220 221 224 231 234 233 236 237 239 243 245 247 247 253 255 257 264 267 271 272 272 272 273 273 275 276 277 278 280 281 282 284 284 285 286 286 286 285 285 284 285 285 286 286 287 288 288 289 289
223 225 228 232 235 235 238 238 239 240 246 250 254 258 262 265 267 268 270 271 272 272 273 274 274 276 277 278 279 280 281 281 283 283 283 283 282 281 282 283 284 285 285 286 286 286 286 286 287
227 227 227 229 230 241 245 244 249 253 255 258 262 265 264 264 265 267 268 269 271 273 275 276 276 277 277 278 279 281 281 282 282 282 281 281 281 282 284 285 285 286 286 287 288 289 288 288 288
225 219 224 228 235 246 253 256 259 263 264 263 264 266 268 267 266 266 268 271 275 276 277 278 280 280 281 282 283 283 282 283 283 283 284 284 284 286 287 287 287 287 287 288 288 287 287 289 289
224 224 230 232 243 249 254 259 260 268 268 269 270 268 268 268 270 275 278 277 275 276 278 281 283 283 284 284 284 285 286 286 286 286 286 285 285 286 288 289 289 289 289 289 288 287 287 286 286
251 255 256 256 254 255 262 264 267 265 266 268 269 270 271 275 279 280 281 283 285 285 285 284 285 287 287 286 287 287 287 287 286 287 287 287 287 287 287 287 286 286 285 285 284 283 282 280 279
259 260 263 265 267 267 267 270 275 278 277 278 281 285 286 288 290 291 291 291 291 290 289 289 288 288 287 287 287 287 286 286 285 285 286 288 287 286 285 285 284 284 283 282 281 280 278 276 276